AG1T-20 Weather Reports


time (UTC)temp
C
wind
direction
speed
KPH
gust
KPH
rain 1hr
cm
rain 24hr
cm
rain mn
cm
humidity
%
barometer
mb
20260502162004 12 344 1.6 11.3 0.00 0.00 0.00 46 1023.1
20260502161004 12 349 0.0 9.7 0.00 0.00 0.00 47 1023.1
20260502152004 9 303 0.0 6.4 0.00 0.00 0.00 50 1023.2
20260502151004 10 304 0.0 3.2 0.00 0.00 0.00 49 1023.2
20260502123004 1 115 0.0 1.6 0.00 0.00 0.00 82 1022.7
20260502122004 1 131 0.0 3.2 0.00 0.00 0.00 81 1022.7
20260502121005 1 81 0.0 3.2 0.00 0.00 0.00 82 1022.7
20260502115004 1 54 0.0 4.8 0.00 0.00 0.00 83 1022.8
20260502114004 1 325 0.0 4.8 0.00 0.00 0.00 83 1022.8
20260502113004 1 94 0.0 1.6 0.00 0.00 0.00 82 1022.8
20260502112004 1 201 0.0 1.6 0.00 0.00 0.00 82 1022.8
20260502111005 1 96 0.0 1.6 0.00 0.00 0.00 82 1022.8
20260502110005 1 241 0.0 0.0 0.00 0.00 0.00 81 1022.8
20260502105004 2 135 0.0 1.6 0.00 0.00 0.00 79 1022.8
20260502104004 2 162 0.0 3.2 0.00 0.00 0.00 79 1022.8
20260502103004 2 164 0.0 3.2 0.00 0.00 0.00 77 1022.8
20260502102004 3 69 0.0 4.8 0.00 0.00 0.00 74 1022.8
20260502101004 2 115 0.0 3.2 0.00 0.00 0.00 77 1022.8
20260502091004 3 106 0.0 3.2 0.00 0.00 0.00 75 1022.6
20260502071004 5 100 0.0 1.6 0.00 0.00 0.00 72 1022.5
20260502070004 5 265 0.0 1.6 0.00 0.00 0.00 69 1022.5
20260502065004 5 204 0.0 3.2 0.00 0.00 0.00 67 1022.0
20260502064004 5 39 0.0 4.8 0.00 0.00 0.00 64 1022.0
20260502063004 5 51 0.0 1.6 0.00 0.00 0.00 65 1022.0
20260502062004 6 104 0.0 1.6 0.00 0.00 0.00 66 1022.0
20260502061004 6 14 0.0 1.6 0.00 0.00 0.00 63 1022.0
20260502060004 6 33 0.0 1.6 0.00 0.00 0.00 63 1022.0
20260502055005 6 32 0.0 1.6 0.00 0.00 0.00 60 1021.8
20260502054004 6 78 0.0 1.6 0.00 0.00 0.00 64 1021.8
20260502053004 7 234 0.0 3.2 0.00 0.00 0.00 59 1021.8
20260502052004 8 191 1.6 6.4 0.00 0.00 0.00 55 1021.8
20260502051004 8 173 1.6 6.4 0.00 0.00 0.00 55 1021.8
20260502050004 8 129 1.6 8.0 0.00 0.00 0.00 55 1021.8
20260502045004 8 148 1.6 6.4 0.00 0.00 0.00 57 1021.6
20260502044004 8 178 1.6 6.4 0.00 0.00 0.00 61 1021.6
20260502043004 8 211 1.6 8.0 0.00 0.00 0.00 58 1021.6
20260502042005 8 222 0.0 4.8 0.00 0.00 0.00 56 1021.6
20260502041005 10 149 1.6 6.4 0.00 0.00 0.00 51 1021.6
20260502040005 10 130 1.6 6.4 0.00 0.00 0.00 52 1021.6
20260502035004 10 140 3.2 9.7 0.00 0.00 0.00 50 1020.8
20260502034004 10 133 1.6 8.0 0.00 0.00 0.00 49 1020.8
20260502033004 10 134 0.0 3.2 0.00 0.00 0.00 53 1020.8
20260502032004 11 297 0.0 3.2 0.00 0.00 0.00 47 1020.8
20260502031004 11 147 0.0 4.8 0.00 0.00 0.00 47 1020.8
20260502030004 11 143 1.6 4.8 0.00 0.00 0.00 44 1020.8
20260502025004 12 118 1.6 6.4 0.00 0.00 0.00 41 1020.6
20260502024005 12 144 0.0 1.6 0.00 0.00 0.00 41 1020.6
20260502023004 13 169 0.0 1.6 0.00 0.00 0.00 41 1020.6
20260502022004 15 281 0.0 3.2 0.00 0.00 0.00 32 1020.6
20260502021004 16 321 0.0 4.8 0.00 0.00 0.00 28 1020.6
20260502020004 17 331 1.6 6.4 0.00 0.00 0.00 27 1020.6
20260502015004 18 331 1.6 8.0 0.00 0.00 0.00 26 1020.5
20260502014004 18 299 1.6 8.0 0.00 0.00 0.00 26 1020.5
20260502013004 18 313 1.6 9.7 0.00 0.00 0.00 25 1020.5
20260502012004 18 306 1.6 8.0 0.00 0.00 0.00 27 1020.5
20260502011004 19 12 1.6 9.7 0.00 0.00 0.00 22 1020.5
20260502010004 18 316 3.2 12.9 0.00 0.00 0.00 23 1020.5
20260502005004 18 347 3.2 11.3 0.00 0.00 0.00 26 1020.6
20260502004005 18 311 3.2 12.9 0.00 0.00 0.00 26 1020.6
20260502003004 18 291 3.2 12.9 0.00 0.00 0.00 27 1020.6
20260502002004 18 304 3.2 19.3 0.00 0.00 0.00 24 1020.6
20260502001004 18 310 3.2 16.1 0.00 0.00 0.00 25 1020.6
20260502000004 18 286 3.2 17.7 0.00 0.00 0.00 26 1020.6
20260501235004 18 269 3.2 14.5 0.00 0.00 0.00 26 1020.7
20260501234004 18 316 3.2 14.5 0.00 0.00 0.00 27 1020.7
20260501233004 18 282 3.2 16.1 0.00 0.00 0.00 24 1020.7
20260501232005 18 329 3.2 16.1 0.00 0.00 0.00 26 1020.7
20260501231004 18 300 1.6 9.7 0.00 0.00 0.00 25 1020.7
20260501230004 18 293 3.2 12.9 0.00 0.00 0.00 26 1020.7
20260501225004 18 307 3.2 16.1 0.00 0.00 0.00 25 1021.4
20260501224004 18 310 3.2 16.1 0.00 0.00 0.00 26 1021.4
20260501223004 18 277 1.6 12.9 0.00 0.00 0.00 25 1021.4
20260501222004 19 27 3.2 12.9 0.00 0.00 0.00 28 1021.4
20260501221004 18 343 3.2 14.5 0.00 0.00 0.00 25 1021.4
20260501220004 18 333 3.2 17.7 0.00 0.00 0.00 26 1021.4
20260501215004 17 299 3.2 17.7 0.00 0.00 0.00 27 1021.9
20260501214004 18 336 3.2 16.1 0.00 0.00 0.00 29 1021.9
20260501213004 17 305 3.2 16.1 0.00 0.00 0.00 26 1021.9
20260501212004 17 332 4.8 17.7 0.00 0.00 0.00 28 1021.9
20260501211004 17 5 1.6 12.9 0.00 0.00 0.00 29 1021.9
20260501210004 17 17 4.8 16.1 0.00 0.00 0.00 28 1021.9
20260501205004 16 312 3.2 17.7 0.00 0.00 0.00 30 1022.1
20260501204004 17 297 3.2 14.5 0.00 0.00 0.00 29 1022.1
20260501203005 16 261 3.2 22.5 0.00 0.00 0.00 29 1022.1
20260501202005 16 298 3.2 14.5 0.00 0.00 0.00 29 1022.1
20260501201005 16 305 3.2 17.7 0.00 0.00 0.00 31 1022.1
20260501200005 15 24 3.2 14.5 0.00 0.00 0.00 29 1022.1
20260501195005 16 317 3.2 17.7 0.00 0.00 0.00 30 1022.5
20260501194005 16 293 3.2 19.3 0.00 0.00 0.00 32 1022.5
20260501193005 16 293 3.2 14.5 0.00 0.00 0.00 34 1022.5
20260501192005 15 308 3.2 16.1 0.00 0.00 0.00 34 1022.5
20260501191005 15 302 3.2 16.1 0.00 0.00 0.00 32 1022.5
20260501190005 15 337 1.6 14.5 0.00 0.00 0.00 34 1022.5
20260501185005 15 62 1.6 12.9 0.00 0.00 0.00 31 1023.1
20260501184005 15 320 1.6 11.3 0.00 0.00 0.00 32 1023.1
20260501183005 15 28 1.6 11.3 0.00 0.00 0.00 31 1023.1
20260501182005 15 17 1.6 11.3 0.00 0.00 0.00 33 1023.1
20260501181005 13 333 1.6 14.5 0.00 0.00 0.00 34 1023.1
20260501180005 14 235 1.6 9.7 0.00 0.00 0.00 32 1023.1
20260501175005 13 71 1.6 11.3 0.00 0.00 0.00 33 1023.5
20260501174005 13 281 1.6 12.9 0.00 0.00 0.00 34 1023.5
20260501173007 13 301 1.6 6.4 0.00 0.00 0.00 36 1023.5
20260501172005 13 319 1.6 9.7 0.00 0.00 0.00 34 1023.5
20260501171005 12 325 1.6 11.3 0.00 0.00 0.00 38 1023.5
20260501170005 12 306 3.2 12.9 0.00 0.00 0.00 40 1023.5
20260501165005 12 284 1.6 11.3 0.00 0.00 0.00 44 1023.6
20260501164005 12 329 3.2 11.3 0.00 0.00 0.00 39 1023.6
20260501163005 11 323 1.6 11.3 0.00 0.00 0.00 39 1023.6